| time (UTC) | temp C | wind direction | speed KPH | gust KPH | rain 1hr cm | rain 24hr cm | rain mn cm | humidity % | barometer mb |
| 20260509135507 | 8 | 136 | 6.4 | 11.3 | 0.08 | 0.41 | 0.36 | 93 | 1008.7 |
| 20260509135004 | 8 | 159 | 6.4 | 11.3 | 0.10 | 0.41 | 0.36 | 93 | 1008.8 |
| 20260509134517 | 8 | 160 | 4.8 | 11.3 | 0.10 | 0.41 | 0.36 | 93 | 1008.8 |
| 20260509134009 | 8 | 145 | 4.8 | 11.3 | 0.10 | 0.43 | 0.36 | 92 | 1008.9 |
| 20260509133504 | 8 | 147 | 6.4 | 9.7 | 0.10 | 0.41 | 0.33 | 92 | 1008.9 |
| 20260509133016 | 8 | 123 | 6.4 | 11.3 | 0.10 | 0.43 | 0.33 | 92 | 1009.1 |
| 20260509132507 | 8 | 169 | 8.0 | 11.3 | 0.10 | 0.46 | 0.33 | 92 | 1009.0 |
| 20260509132009 | 8 | 158 | 3.2 | 11.3 | 0.10 | 0.48 | 0.33 | 92 | 1009.2 |
| 20260509131512 | 8 | 179 | 4.8 | 11.3 | 0.10 | 0.48 | 0.30 | 92 | 1009.4 |
| 20260509131010 | 8 | 178 | 6.4 | 11.3 | 0.10 | 0.51 | 0.30 | 92 | 1009.3 |
| 20260509130510 | 8 | 184 | 6.4 | 16.1 | 0.08 | 0.51 | 0.28 | 92 | 1009.2 |
| 20260509130015 | 8 | 165 | 6.4 | 16.1 | 0.10 | 0.56 | 0.28 | 92 | 1009.2 |
| 20260509125506 | 8 | 176 | 9.7 | 16.1 | 0.10 | 0.61 | 0.28 | 92 | 1009.3 |
| 20260509125007 | 8 | 167 | 8.0 | 20.9 | 0.10 | 0.58 | 0.25 | 92 | 1009.3 |
| 20260509124524 | 8 | 190 | 8.0 | 20.9 | 0.10 | 0.58 | 0.25 | 92 | 1009.3 |
| 20260509124005 | 8 | 178 | 8.0 | 14.5 | 0.13 | 0.58 | 0.25 | 92 | 1009.3 |
| 20260509123507 | 8 | 181 | 6.4 | 12.9 | 0.13 | 0.56 | 0.23 | 92 | 1009.3 |
| 20260509123026 | 8 | 212 | 6.4 | 12.9 | 0.13 | 0.56 | 0.23 | 92 | 1009.3 |
| 20260509122505 | 8 | 181 | 4.8 | 9.7 | 0.13 | 0.56 | 0.23 | 92 | 1009.3 |
| 20260509122008 | 8 | 194 | 6.4 | 11.3 | 0.15 | 0.56 | 0.23 | 92 | 1009.4 |
| 20260509121523 | 7 | 201 | 4.8 | 11.3 | 0.15 | 0.53 | 0.20 | 92 | 1009.4 |
| 20260509121007 | 7 | 176 | 3.2 | 9.7 | 0.15 | 0.53 | 0.20 | 92 | 1009.4 |
| 20260509120504 | 7 | 185 | 4.8 | 9.7 | 0.18 | 0.53 | 0.20 | 92 | 1009.4 |
| 20260509120020 | 7 | 176 | 3.2 | 11.3 | 0.18 | 0.51 | 0.18 | 92 | 1009.5 |
| 20260509115507 | 7 | 181 | 4.8 | 11.3 | 0.18 | 0.51 | 0.18 | 92 | 1009.5 |
| 20260509115010 | 7 | 178 | 4.8 | 9.7 | 0.15 | 0.48 | 0.15 | 92 | 1009.6 |
| 20260509114516 | 7 | 210 | 4.8 | 9.7 | 0.15 | 0.48 | 0.15 | 92 | 1009.6 |
| 20260509114009 | 7 | 212 | 4.8 | 11.3 | 0.13 | 0.46 | 0.13 | 92 | 1009.6 |
| 20260509113508 | 7 | 169 | 6.4 | 11.3 | 0.10 | 0.43 | 0.10 | 92 | 1009.5 |
| 20260509113013 | 7 | 158 | 4.8 | 9.7 | 0.10 | 0.43 | 0.10 | 91 | 1009.6 |
| 20260509112506 | 7 | 179 | 4.8 | 9.7 | 0.10 | 0.43 | 0.10 | 91 | 1009.5 |
| 20260509112009 | 7 | 153 | 4.8 | 11.3 | 0.08 | 0.41 | 0.08 | 91 | 1009.5 |
| 20260509111523 | 7 | 172 | 6.4 | 11.3 | 0.05 | 0.38 | 0.05 | 90 | 1009.5 |
| 20260509111005 | 7 | 174 | 6.4 | 12.9 | 0.05 | 0.38 | 0.05 | 90 | 1009.5 |
| 20260509110510 | 7 | 205 | 6.4 | 12.9 | 0.03 | 0.36 | 0.03 | 90 | 1009.4 |
| 20260509110025 | 7 | 176 | 6.4 | 16.1 | 0.00 | 0.33 | 0.00 | 90 | 1009.4 |
| 20260509105503 | 7 | 186 | 8.0 | 16.1 | 0.00 | 0.33 | 0.00 | 90 | 1009.4 |
| 20260509105007 | 7 | 158 | 8.0 | 14.5 | 0.00 | 0.33 | 0.00 | 90 | 1009.3 |
| 20260509104524 | 7 | 185 | 8.0 | 11.3 | 0.00 | 0.33 | 0.00 | 89 | 1009.3 |
| 20260509104007 | 7 | 174 | 6.4 | 11.3 | 0.00 | 0.33 | 0.00 | 89 | 1009.2 |
| 20260509103504 | 7 | 197 | 6.4 | 8.0 | 0.00 | 0.33 | 0.00 | 89 | 1009.2 |
| 20260509103021 | 7 | 179 | 4.8 | 8.0 | 0.00 | 0.33 | 0.00 | 88 | 1009.2 |
| 20260509102509 | 7 | 186 | 3.2 | 8.0 | 0.00 | 0.33 | 0.00 | 88 | 1009.1 |
| 20260509102003 | 7 | 150 | 4.8 | 9.7 | 0.00 | 0.33 | 0.00 | 88 | 1009.1 |
| 20260509101518 | 7 | 144 | 4.8 | 9.7 | 0.00 | 0.33 | 0.00 | 87 | 1009.2 |
| 20260509101009 | 7 | 182 | 4.8 | 9.7 | 0.00 | 0.33 | 0.00 | 87 | 1009.2 |
| 20260509100508 | 7 | 195 | 4.8 | 9.7 | 0.00 | 0.33 | 0.00 | 87 | 1009.1 |
| 20260509100015 | 7 | 182 | 4.8 | 11.3 | 0.00 | 0.33 | 0.00 | 86 | 1009.1 |
| 20260509095508 | 7 | 187 | 4.8 | 11.3 | 0.00 | 0.33 | 0.00 | 86 | 1009.1 |
| 20260509095009 | 7 | 179 | 6.4 | 9.7 | 0.00 | 0.33 | 0.00 | 85 | 1009.1 |
| 20260509094525 | 7 | 172 | 3.2 | 6.4 | 0.00 | 0.33 | 0.00 | 85 | 1009.1 |
| 20260509094007 | 7 | 174 | 3.2 | 12.9 | 0.00 | 0.33 | 0.00 | 85 | 1009.0 |
| 20260509093508 | 7 | 191 | 6.4 | 12.9 | 0.00 | 0.33 | 0.00 | 85 | 1009.2 |
| 20260509093026 | 7 | 167 | 3.2 | 8.0 | 0.00 | 0.33 | 0.00 | 85 | 1009.1 |
| 20260509092504 | 7 | 122 | 3.2 | 9.7 | 0.00 | 0.33 | 0.00 | 84 | 1009.1 |
| 20260509092007 | 7 | 179 | 4.8 | 9.7 | 0.00 | 0.33 | 0.00 | 84 | 1009.1 |
| 20260509091533 | 7 | 181 | 4.8 | 9.7 | 0.00 | 0.33 | 0.00 | 84 | 1009.1 |
| 20260509091006 | 7 | 178 | 4.8 | 9.7 | 0.00 | 0.33 | 0.00 | 84 | 1009.1 |
| 20260509090505 | 7 | 193 | 4.8 | 11.3 | 0.00 | 0.33 | 0.00 | 83 | 1009.1 |
| 20260509090024 | 7 | 176 | 6.4 | 11.3 | 0.00 | 0.33 | 0.00 | 83 | 1009.1 |
| 20260509085510 | 7 | 169 | 4.8 | 11.3 | 0.00 | 0.33 | 0.00 | 83 | 1009.1 |
| 20260509085005 | 7 | 180 | 4.8 | 11.3 | 0.00 | 0.33 | 0.00 | 83 | 1009.1 |
| 20260509084528 | 7 | 200 | 6.4 | 9.7 | 0.00 | 0.33 | 0.00 | 82 | 1009.3 |
| 20260509084009 | 7 | 176 | 4.8 | 9.7 | 0.00 | 0.33 | 0.00 | 81 | 1009.4 |
| 20260509083509 | 7 | 185 | 4.8 | 6.4 | 0.00 | 0.33 | 0.00 | 81 | 1009.4 |
| 20260509083019 | 7 | 198 | 4.8 | 6.4 | 0.00 | 0.33 | 0.00 | 80 | 1009.5 |
| 20260509082507 | 7 | 198 | 3.2 | 6.4 | 0.00 | 0.33 | 0.00 | 79 | 1009.3 |
| 20260509082012 | 7 | 195 | 3.2 | 6.4 | 0.00 | 0.33 | 0.00 | 79 | 1009.3 |
| 20260509081515 | 7 | 184 | 3.2 | 6.4 | 0.00 | 0.33 | 0.00 | 78 | 1009.3 |
| 20260509081007 | 7 | 181 | 3.2 | 6.4 | 0.00 | 0.33 | 0.00 | 78 | 1009.3 |
| 20260509080510 | 7 | 154 | 3.2 | 8.0 | 0.00 | 0.33 | 0.00 | 77 | 1009.5 |
| 20260509080040 | 7 | 172 | 4.8 | 8.0 | 0.00 | 0.33 | 0.00 | 76 | 1009.7 |
| 20260509075507 | 7 | 183 | 4.8 | 9.7 | 0.00 | 0.33 | 0.00 | 76 | 1009.6 |
| 20260509075015 | 7 | 171 | 4.8 | 11.3 | 0.00 | 0.33 | 0.00 | 76 | 1009.7 |
| 20260509074527 | 7 | 191 | 6.4 | 11.3 | 0.00 | 0.33 | 0.00 | 75 | 1009.7 |
| 20260509074010 | 6 | 205 | 4.8 | 8.0 | 0.00 | 0.33 | 0.00 | 74 | 1009.7 |
| 20260509073508 | 6 | 188 | 6.4 | 9.7 | 0.00 | 0.33 | 0.00 | 73 | 1009.7 |
| 20260509073046 | 6 | 186 | 4.8 | 11.3 | 0.00 | 0.33 | 0.00 | 73 | 1009.7 |
| 20260509072508 | 6 | 195 | 4.8 | 11.3 | 0.00 | 0.33 | 0.00 | 73 | 1009.8 |
| 20260509072009 | 6 | 200 | 4.8 | 9.7 | 0.00 | 0.33 | 0.00 | 72 | 1009.8 |
| 20260509071524 | 6 | 190 | 6.4 | 9.7 | 0.00 | 0.33 | 0.00 | 71 | 1009.9 |
| 20260509071007 | 6 | 205 | 6.4 | 9.7 | 0.00 | 0.33 | 0.00 | 70 | 1010.0 |
| 20260509070512 | 6 | 186 | 6.4 | 9.7 | 0.00 | 0.33 | 0.00 | 70 | 1009.9 |
| 20260509070004 | 6 | 174 | 4.8 | 8.0 | 0.00 | 0.33 | 0.00 | 71 | 1009.8 |
| 20260509065507 | 6 | 173 | 6.4 | 8.0 | 0.00 | 0.33 | 0.00 | 70 | 1010.0 |
| 20260509065003 | 6 | 191 | 4.8 | 8.0 | 0.00 | 0.33 | 0.00 | 70 | 1010.0 |
| 20260509064519 | 6 | 191 | 3.2 | 6.4 | 0.00 | 0.33 | 0.00 | 69 | 1010.0 |
| 20260509064003 | 7 | 200 | 3.2 | 9.7 | 0.00 | 0.33 | 0.00 | 69 | 1010.1 |
| 20260509063504 | 7 | 190 | 3.2 | 9.7 | 0.00 | 0.33 | 0.00 | 68 | 1010.1 |
| 20260509063016 | 7 | 198 | 6.4 | 11.3 | 0.00 | 0.33 | 0.00 | 67 | 1010.3 |
| 20260509062510 | 6 | 207 | 6.4 | 11.3 | 0.00 | 0.33 | 0.00 | 67 | 1010.3 |
| 20260509062006 | 7 | 191 | 6.4 | 11.3 | 0.00 | 0.33 | 0.00 | 66 | 1010.3 |
| 20260509061511 | 7 | 195 | 6.4 | 9.7 | 0.00 | 0.33 | 0.00 | 65 | 1010.3 |
| 20260509061005 | 7 | 179 | 6.4 | 8.0 | 0.00 | 0.33 | 0.00 | 63 | 1010.4 |
| 20260509060508 | 7 | 167 | 3.2 | 8.0 | 0.00 | 0.33 | 0.00 | 62 | 1010.4 |
| 20260509060015 | 7 | 177 | 3.2 | 6.4 | 0.00 | 0.33 | 0.00 | 60 | 1010.6 |
| 20260509055508 | 7 | 194 | 3.2 | 6.4 | 0.00 | 0.33 | 0.00 | 60 | 1010.6 |
| 20260509055007 | 7 | 188 | 3.2 | 6.4 | 0.00 | 0.33 | 0.00 | 61 | 1010.7 |
| 20260509054505 | 7 | 198 | 4.8 | 6.4 | 0.00 | 0.33 | 0.00 | 60 | 1010.8 |
| 20260509054005 | 7 | 195 | 3.2 | 6.4 | 0.00 | 0.33 | 0.00 | 59 | 1010.8 |
| 20260509053504 | 7 | 195 | 4.8 | 6.4 | 0.00 | 0.33 | 0.00 | 59 | 1010.8 |
| 20260509053011 | 7 | 186 | 3.2 | 4.8 | 0.00 | 0.33 | 0.00 | 59 | 1010.9 |
| 20260509052504 | 7 | 187 | 1.6 | 4.8 | 0.00 | 0.33 | 0.00 | 59 | 1010.8 |
| 20260509052005 | 7 | 187 | 1.6 | 4.8 | 0.00 | 0.33 | 0.00 | 59 | 1010.9 |
| 20260509051522 | 7 | 166 | 3.2 | 3.2 | 0.00 | 0.33 | 0.00 | 60 | 1010.9 |
| 20260509051004 | 7 | 148 | 1.6 | 3.2 | 0.00 | 0.33 | 0.00 | 60 | 1010.8 |
| 20260509050507 | 7 | 148 | 1.6 | 3.2 | 0.00 | 0.33 | 0.00 | 60 | 1010.9 |
| 20260509050029 | 7 | 143 | 0.0 | 1.6 | 0.00 | 0.33 | 0.00 | 60 | 1010.9 |
| 20260509045503 | 7 | 143 | 0.0 | 0.0 | 0.00 | 0.33 | 0.00 | 60 | 1010.9 |
| 20260509045005 | 7 | 143 | 0.0 | 3.2 | 0.00 | 0.33 | 0.00 | 60 | 1010.9 |
| 20260509044517 | 7 | 143 | 0.0 | 4.8 | 0.00 | 0.33 | 0.00 | 59 | 1011.0 |
| 20260509044005 | 7 | 140 | 1.6 | 8.0 | 0.00 | 0.33 | 0.00 | 59 | 1011.0 |
| 20260509043504 | 7 | 131 | 0.0 | 8.0 | 0.00 | 0.33 | 0.00 | 58 | 1011.1 |
| 20260509043029 | 7 | 127 | 0.0 | 1.6 | 0.00 | 0.33 | 0.00 | 58 | 1011.1 |
| 20260509042507 | 7 | 127 | 0.0 | 1.6 | 0.00 | 0.33 | 0.00 | 58 | 1011.1 |
| 20260509042012 | 7 | 127 | 1.6 | 3.2 | 0.00 | 0.33 | 0.00 | 57 | 1011.0 |
| 20260509041511 | 7 | 127 | 1.6 | 3.2 | 0.00 | 0.33 | 0.00 | 58 | 1010.9 |
| 20260509041006 | 7 | 127 | 0.0 | 3.2 | 0.00 | 0.33 | 0.00 | 58 | 1011.1 |
| 20260509040507 | 7 | 127 | 0.0 | 3.2 | 0.00 | 0.33 | 0.00 | 58 | 1011.2 |
| 20260509040008 | 7 | 127 | 1.6 | 3.2 | 0.00 | 0.33 | 0.00 | 58 | 1011.2 |
| 20260509035506 | 7 | 197 | 0.0 | 3.2 | 0.00 | 0.33 | 0.33 | 58 | 1011.3 |
| 20260509035005 | 7 | 197 | 1.6 | 3.2 | 0.00 | 0.33 | 0.33 | 58 | 1011.3 |
| 20260509034525 | 7 | 197 | 1.6 | 3.2 | 0.00 | 0.33 | 0.33 | 58 | 1011.3 |
| 20260509034004 | 7 | 197 | 1.6 | 3.2 | 0.00 | 0.33 | 0.33 | 59 | 1011.2 |
| 20260509033505 | 7 | 197 | 1.6 | 3.2 | 0.00 | 0.33 | 0.33 | 58 | 1011.2 |
| 20260509033023 | 7 | 170 | 1.6 | 3.2 | 0.00 | 0.33 | 0.33 | 58 | 1011.2 |
| 20260509032502 | 7 | 116 | 0.0 | 3.2 | 0.00 | 0.33 | 0.33 | 58 | 1011.1 |
| 20260509032005 | 7 | 94 | 0.0 | 3.2 | 0.00 | 0.33 | 0.33 | 58 | 1011.1 |
| 20260509031520 | 7 | 105 | 0.0 | 3.2 | 0.00 | 0.33 | 0.33 | 58 | 1011.2 |
| 20260509031007 | 7 | 98 | 0.0 | 1.6 | 0.00 | 0.33 | 0.33 | 58 | 1011.2 |
| 20260509030505 | 7 | 98 | 0.0 | 1.6 | 0.00 | 0.33 | 0.33 | 58 | 1011.2 |
| 20260509030014 | 7 | 98 | 0.0 | 0.0 | 0.00 | 0.33 | 0.33 | 59 | 1011.2 |
| 20260509025507 | 8 | 98 | 0.0 | 3.2 | 0.00 | 0.33 | 0.33 | 58 | 1011.3 |
| 20260509025006 | 8 | 98 | 0.0 | 3.2 | 0.00 | 0.33 | 0.33 | 56 | 1011.3 |
| 20260509024512 | 8 | 87 | 1.6 | 3.2 | 0.00 | 0.33 | 0.33 | 57 | 1011.4 |
| 20260509024010 | 8 | 73 | 0.0 | 3.2 | 0.00 | 0.33 | 0.33 | 57 | 1011.5 |
| 20260509023510 | 8 | 18 | 0.0 | 3.2 | 0.00 | 0.33 | 0.33 | 56 | 1011.5 |
| 20260509023017 | 8 | 352 | 0.0 | 0.0 | 0.00 | 0.33 | 0.33 | 55 | 1011.5 |
| 20260509022506 | 8 | 352 | 0.0 | 1.6 | 0.00 | 0.33 | 0.33 | 56 | 1011.6 |
| 20260509022012 | 8 | 352 | 0.0 | 1.6 | 0.00 | 0.33 | 0.33 | 56 | 1011.6 |
| 20260509021528 | 8 | 352 | 0.0 | 0.0 | 0.00 | 0.33 | 0.33 | 56 | 1011.6 |
| 20260509021007 | 8 | 352 | 0.0 | 0.0 | 0.00 | 0.33 | 0.33 | 56 | 1011.5 |
| 20260509020510 | 8 | 352 | 0.0 | 3.2 | 0.00 | 0.33 | 0.33 | 56 | 1011.5 |
| 20260509020025 | 8 | 352 | 0.0 | 3.2 | 0.00 | 0.33 | 0.33 | 57 | 1011.5 |
| 20260509015504 | 7 | 352 | 0.0 | 1.6 | 0.00 | 0.33 | 0.33 | 57 | 1011.5 |
| 20260509015004 | 7 | 352 | 0.0 | 1.6 | 0.00 | 0.33 | 0.33 | 58 | 1011.5 |
| 20260509014523 | 7 | 352 | 0.0 | 1.6 | 0.00 | 0.33 | 0.33 | 57 | 1011.5 |
| 20260509014008 | 7 | 352 | 0.0 | 3.2 | 0.00 | 0.33 | 0.33 | 56 | 1011.6 |
| 20260509013509 | 7 | 352 | 0.0 | 3.2 | 0.00 | 0.33 | 0.33 | 56 | 1011.5 |
| 20260509013039 | 7 | 342 | 0.0 | 3.2 | 0.00 | 0.33 | 0.33 | 56 | 1011.4 |
| 20260509012510 | 7 | 342 | 0.0 | 3.2 | 0.00 | 0.33 | 0.33 | 56 | 1011.4 |
| 20260509012004 | 7 | 342 | 1.6 | 1.6 | 0.00 | 0.33 | 0.33 | 57 | 1011.3 |
| 20260509011514 | 7 | 342 | 1.6 | 1.6 | 0.00 | 0.33 | 0.33 | 56 | 1011.2 |
| 20260509011006 | 7 | 342 | 1.6 | 1.6 | 0.00 | 0.33 | 0.33 | 57 | 1011.2 |
| 20260509010515 | 7 | 342 | 1.6 | 1.6 | 0.00 | 0.33 | 0.33 | 57 | 1011.2 |
| 20260509010019 | 7 | 342 | 1.6 | 1.6 | 0.00 | 0.33 | 0.33 | 57 | 1011.0 |
| 20260509005509 | 7 | 342 | 1.6 | 3.2 | 0.00 | 0.33 | 0.33 | 56 | 1011.0 |
| 20260509005011 | 7 | 342 | 0.0 | 3.2 | 0.00 | 0.33 | 0.33 | 57 | 1010.8 |
| 20260509004522 | 7 | 342 | 1.6 | 3.2 | 0.00 | 0.33 | 0.33 | 60 | 1010.7 |
| 20260509004007 | 8 | 342 | 1.6 | 3.2 | 0.00 | 0.33 | 0.33 | 58 | 1010.6 |
| 20260509003511 | 8 | 342 | 3.2 | 3.2 | 0.00 | 0.33 | 0.33 | 57 | 1010.5 |
| 20260509003036 | 8 | 342 | 1.6 | 3.2 | 0.00 | 0.33 | 0.33 | 56 | 1010.5 |
| 20260509002505 | 8 | 342 | 1.6 | 3.2 | 0.00 | 0.33 | 0.33 | 55 | 1010.6 |
| 20260509002008 | 8 | 342 | 3.2 | 3.2 | 0.00 | 0.33 | 0.33 | 55 | 1010.6 |
| 20260509001523 | 8 | 342 | 1.6 | 3.2 | 0.00 | 0.33 | 0.33 | 56 | 1010.6 |
| 20260509001008 | 8 | 342 | 1.6 | 3.2 | 0.00 | 0.33 | 0.33 | 53 | 1010.5 |
| 20260509000506 | 9 | 342 | 1.6 | 3.2 | 0.00 | 0.33 | 0.33 | 54 | 1010.4 |
| 20260509000021 | 9 | 353 | 3.2 | 3.2 | 0.00 | 0.33 | 0.33 | 54 | 1010.4 |
| 20260508235508 | 9 | 359 | 3.2 | 3.2 | 0.00 | 0.33 | 0.33 | 55 | 1010.4 |
| 20260508235004 | 10 | 4 | 1.6 | 3.2 | 0.00 | 0.33 | 0.33 | 51 | 1010.4 |
| 20260508234519 | 10 | 4 | 1.6 | 3.2 | 0.00 | 0.33 | 0.33 | 54 | 1010.3 |
| 20260508234008 | 10 | 20 | 0.0 | 3.2 | 0.00 | 0.33 | 0.33 | 49 | 1010.3 |
| 20260508233507 | 11 | 20 | 1.6 | 1.6 | 0.00 | 0.33 | 0.33 | 49 | 1010.2 |
| 20260508233016 | 11 | 20 | 1.6 | 3.2 | 0.00 | 0.33 | 0.33 | 47 | 1010.1 |
| 20260508232507 | 11 | 20 | 0.0 | 4.8 | 0.00 | 0.33 | 0.33 | 47 | 1010.1 |
| 20260508232013 | 11 | 27 | 0.0 | 4.8 | 0.00 | 0.33 | 0.33 | 46 | 1010.1 |
| 20260508231512 | 11 | 27 | 1.6 | 4.8 | 0.00 | 0.33 | 0.33 | 46 | 1010.1 |
| 20260508231008 | 11 | 341 | 1.6 | 6.4 | 0.00 | 0.33 | 0.33 | 45 | 1010.2 |
| 20260508230507 | 11 | 336 | 3.2 | 8.0 | 0.00 | 0.33 | 0.33 | 45 | 1010.1 |
| 20260508230042 | 11 | 359 | 4.8 | 8.0 | 0.00 | 0.33 | 0.33 | 45 | 1010.2 |
| 20260508225503 | 11 | 345 | 4.8 | 8.0 | 0.00 | 0.33 | 0.33 | 46 | 1010.2 |
| 20260508225009 | 11 | 360 | 4.8 | 9.7 | 0.00 | 0.33 | 0.33 | 46 | 1010.2 |
| 20260508224527 | 11 | 329 | 6.4 | 11.3 | 0.00 | 0.33 | 0.33 | 45 | 1010.3 |
| 20260508224004 | 11 | 346 | 4.8 | 11.3 | 0.00 | 0.33 | 0.33 | 45 | 1010.3 |
| 20260508223512 | 12 | 347 | 6.4 | 11.3 | 0.00 | 0.33 | 0.33 | 44 | 1010.3 |
| 20260508223026 | 12 | 18 | 4.8 | 11.3 | 0.00 | 0.33 | 0.33 | 45 | 1010.3 |
| 20260508222509 | 12 | 360 | 3.2 | 9.7 | 0.00 | 0.33 | 0.33 | 44 | 1010.2 |
| 20260508222004 | 12 | 344 | 3.2 | 9.7 | 0.00 | 0.33 | 0.33 | 45 | 1010.2 |
| 20260508221524 | 12 | 1 | 3.2 | 12.9 | 0.00 | 0.33 | 0.33 | 45 | 1010.2 |
| 20260508221011 | 12 | 13 | 1.6 | 12.9 | 0.00 | 0.33 | 0.33 | 46 | 1010.1 |
| 20260508220503 | 12 | 28 | 4.8 | 12.9 | 0.00 | 0.33 | 0.33 | 45 | 1010.1 |
| 20260508220021 | 12 | 360 | 3.2 | 11.3 | 0.00 | 0.33 | 0.33 | 45 | 1010.2 |
| 20260508215511 | 12 | 357 | 3.2 | 11.3 | 0.00 | 0.33 | 0.33 | 47 | 1010.2 |
| 20260508215012 | 12 | 8 | 1.6 | 9.7 | 0.00 | 0.33 | 0.33 | 47 | 1010.3 |
| 20260508214518 | 12 | 334 | 4.8 | 9.7 | 0.00 | 0.33 | 0.33 | 47 | 1010.3 |
| 20260508214009 | 12 | 15 | 3.2 | 9.7 | 0.00 | 0.33 | 0.33 | 49 | 1010.3 |
| 20260508213509 | 11 | 15 | 3.2 | 8.0 | 0.00 | 0.33 | 0.33 | 50 | 1010.3 |
| 20260508213013 | 11 | 356 | 4.8 | 8.0 | 0.00 | 0.33 | 0.33 | 51 | 1010.3 |
| 20260508212508 | 11 | 18 | 3.2 | 8.0 | 0.00 | 0.33 | 0.33 | 51 | 1010.4 |
| 20260508212014 | 11 | 18 | 3.2 | 9.7 | 0.00 | 0.33 | 0.33 | 50 | 1010.3 |
| 20260508211532 | 11 | 44 | 3.2 | 12.9 | 0.00 | 0.33 | 0.33 | 50 | 1010.3 |
| 20260508211008 | 11 | 17 | 4.8 | 12.9 | 0.00 | 0.33 | 0.33 | 48 | 1010.3 |
| 20260508210508 | 12 | 1 | 4.8 | 12.9 | 0.00 | 0.33 | 0.33 | 49 | 1010.3 |
| 20260508210027 | 12 | 20 | 4.8 | 12.9 | 0.00 | 0.33 | 0.33 | 49 | 1010.4 |
| 20260508205503 | 11 | 13 | 4.8 | 12.9 | 0.00 | 0.33 | 0.33 | 52 | 1010.3 |
| 20260508205006 | 11 | 5 | 4.8 | 12.9 | 0.00 | 0.33 | 0.33 | 52 | 1010.5 |
| 20260508204524 | 10 | 14 | 4.8 | 14.5 | 0.00 | 0.33 | 0.33 | 53 | 1010.4 |
| 20260508204011 | 10 | 360 | 3.2 | 14.5 | 0.00 | 0.33 | 0.33 | 54 | 1010.4 |
| 20260508203511 | 10 | 47 | 3.2 | 16.1 | 0.00 | 0.33 | 0.33 | 52 | 1010.5 |
| 20260508203022 | 11 | 345 | 6.4 | 16.1 | 0.00 | 0.33 | 0.33 | 51 | 1010.5 |
| 20260508202515 | 11 | 11 | 6.4 | 16.1 | 0.00 | 0.33 | 0.33 | 51 | 1010.5 |
| 20260508202011 | 11 | 329 | 4.8 | 16.1 | 0.00 | 0.33 | 0.33 | 52 | 1010.6 |
| 20260508201522 | 11 | 328 | 8.0 | 16.1 | 0.00 | 0.33 | 0.33 | 50 | 1010.7 |
| 20260508201007 | 11 | 326 | 6.4 | 16.1 | 0.00 | 0.33 | 0.33 | 50 | 1010.7 |
| 20260508200514 | 11 | 346 | 4.8 | 12.9 | 0.00 | 0.33 | 0.33 | 52 | 1010.7 |
| 20260508200017 | 11 | 352 | 4.8 | 12.9 | 0.00 | 0.33 | 0.33 | 53 | 1010.8 |
| 20260508195505 | 11 | 333 | 6.4 | 12.9 | 0.00 | 0.33 | 0.33 | 54 | 1010.9 |
| 20260508195015 | 11 | 356 | 6.4 | 11.3 | 0.00 | 0.33 | 0.33 | 54 | 1011.1 |
| 20260508194527 | 11 | 349 | 4.8 | 17.7 | 0.00 | 0.33 | 0.33 | 54 | 1011.1 |
| 20260508194008 | 11 | 331 | 6.4 | 17.7 | 0.00 | 0.33 | 0.33 | 53 | 1011.1 |
| 20260508193511 | 11 | 33 | 4.8 | 12.9 | 0.00 | 0.33 | 0.33 | 50 | 1011.2 |
| 20260508193030 | 11 | 210 | 4.8 | 12.9 | 0.00 | 0.33 | 0.33 | 51 | 1011.3 |
| 20260508192506 | 10 | 324 | 8.0 | 17.7 | 0.00 | 0.33 | 0.33 | 51 | 1011.3 |
| 20260508192010 | 10 | 309 | 6.4 | 20.9 | 0.00 | 0.33 | 0.33 | 52 | 1011.4 |
| 20260508191530 | 10 | 342 | 12.9 | 20.9 | 0.00 | 0.33 | 0.33 | 52 | 1011.4 |
| 20260508191009 | 10 | 345 | 6.4 | 16.1 | 0.00 | 0.33 | 0.33 | 53 | 1011.4 |
| 20260508190507 | 10 | 250 | 8.0 | 12.9 | 0.00 | 0.33 | 0.33 | 55 | 1011.5 |
| 20260508190023 | 10 | 319 | 4.8 | 25.7 | 0.00 | 0.33 | 0.33 | 55 | 1011.4 |
| 20260508190008 | 10 | 325 | 4.8 | 25.7 | 0.00 | 0.33 | 0.33 | 55 | 1011.4 |
| 20260508185504 | 10 | 328 | 16.1 | 25.7 | 0.00 | 0.33 | 0.33 | 54 | 1011.4 |
| 20260508185007 | 10 | 349 | 3.2 | 14.5 | 0.00 | 0.33 | 0.33 | 54 | 1011.4 |
| 20260508184504 | 10 | 55 | 4.8 | 14.5 | 0.00 | 0.33 | 0.33 | 59 | 1011.5 |
| 20260508184004 | 10 | 24 | 3.2 | 6.4 | 0.00 | 0.33 | 0.33 | 62 | 1011.6 |
| 20260508183504 | 11 | 359 | 3.2 | 9.7 | 0.00 | 0.33 | 0.33 | 60 | 1011.6 |
| 20260508183047 | 10 | 193 | 1.6 | 9.7 | 0.00 | 0.33 | 0.33 | 61 | 1011.7 |
| 20260508182504 | 10 | 85 | 1.6 | 8.0 | 0.00 | 0.33 | 0.33 | 67 | 1011.8 |
| 20260508182003 | 8 | 85 | 3.2 | 6.4 | 0.00 | 0.33 | 0.33 | 69 | 1011.9 |
| 20260508181543 | 8 | 34 | 3.2 | 9.7 | 0.00 | 0.33 | 0.33 | 69 | 1012.0 |
| 20260508181003 | 8 | 10 | 3.2 | 9.7 | 0.00 | 0.33 | 0.33 | 69 | 1012.3 |
| 20260508180503 | 8 | 47 | 3.2 | 9.7 | 0.00 | 0.33 | 0.33 | 72 | 1012.3 |
| 20260508180016 | 7 | 331 | 3.2 | 6.4 | 0.00 | 0.33 | 0.33 | 74 | 1012.3 |
| 20260508175508 | 7 | 356 | 3.2 | 8.0 | 0.00 | 0.33 | 0.33 | 74 | 1012.5 |
| 20260508175004 | 7 | 344 | 4.8 | 11.3 | 0.00 | 0.33 | 0.33 | 74 | 1012.4 |
| 20260508174516 | 7 | 11 | 6.4 | 11.3 | 0.00 | 0.33 | 0.33 | 73 | 1012.3 |
| 20260508174005 | 8 | 326 | 6.4 | 11.3 | 0.00 | 0.33 | 0.33 | 71 | 1012.4 |
| 20260508173504 | 9 | 37 | 3.2 | 8.0 | 0.00 | 0.33 | 0.33 | 69 | 1012.3 |
| 20260508173006 | 9 | 311 | 1.6 | 8.0 | 0.00 | 0.33 | 0.33 | 72 | 1012.4 |
| 20260508172510 | 8 | 90 | 1.6 | 8.0 | 0.00 | 0.33 | 0.33 | 74 | 1012.4 |
| 20260508172009 | 8 | 329 | 3.2 | 8.0 | 0.00 | 0.33 | 0.33 | 72 | 1012.4 |
| 20260508171504 | 8 | 125 | 4.8 | 8.0 | 0.00 | 0.33 | 0.33 | 73 | 1012.3 |
| 20260508171004 | 8 | 167 | 4.8 | 8.0 | 0.00 | 0.33 | 0.33 | 74 | 1012.3 |
| 20260508170507 | 7 | 127 | 4.8 | 9.7 | 0.00 | 0.33 | 0.33 | 71 | 1012.5 |
| 20260508170009 | 7 | 68 | 3.2 | 9.7 | 0.00 | 0.33 | 0.33 | 72 | 1012.6 |
| 20260508165503 | 7 | 147 | 1.6 | 8.0 | 0.00 | 0.33 | 0.33 | 74 | 1012.7 |
| 20260508165005 | 7 | 71 | 1.6 | 8.0 | 0.00 | 0.33 | 0.33 | 74 | 1012.7 |
| 20260508164522 | 7 | 97 | 3.2 | 6.4 | 0.00 | 0.33 | 0.33 | 74 | 1012.6 |
| 20260508164004 | 8 | 1 | 1.6 | 6.4 | 0.00 | 0.33 | 0.33 | 75 | 1012.5 |
| 20260508163504 | 8 | 70 | 3.2 | 6.4 | 0.00 | 0.33 | 0.33 | 77 | 1012.6 |
| 20260508163016 | 7 | 43 | 3.2 | 6.4 | 0.00 | 0.33 | 0.33 | 76 | 1012.6 |
| 20260508162500 | 7 | 84 | 1.6 | 4.8 | 0.00 | 0.33 | 0.33 | 77 | 1012.5 |
| 20260508162004 | 6 | 285 | 0.0 | 8.0 | 0.00 | 0.33 | 0.33 | 74 | 1012.5 |
| 20260508161515 | 6 | 254 | 3.2 | 8.0 | 0.00 | 0.33 | 0.33 | 75 | 1012.6 |
| 20260508161008 | 6 | 66 | 1.6 | 4.8 | 0.00 | 0.33 | 0.33 | 76 | 1012.7 |
| 20260508160503 | 6 | 354 | 3.2 | 6.4 | 0.00 | 0.33 | 0.33 | 79 | 1012.8 |
| 20260508160015 | 6 | 200 | 1.6 | 6.4 | 0.00 | 0.33 | 0.33 | 80 | 1012.8 |
| 20260508155507 | 5 | 320 | 1.6 | 4.8 | 0.00 | 0.33 | 0.33 | 78 | 1012.8 |
| 20260508155010 | 6 | 340 | 0.0 | 3.2 | 0.00 | 0.33 | 0.33 | 80 | 1012.7 |
| 20260508154510 | 5 | 117 | 0.0 | 3.2 | 0.00 | 0.33 | 0.33 | 82 | 1012.7 |
| 20260508154003 | 5 | 286 | 0.0 | 3.2 | 0.03 | 0.33 | 0.33 | 83 | 1012.7 |
| 20260508153507 | 5 | 269 | 0.0 | 4.8 | 0.03 | 0.33 | 0.33 | 82 | 1012.9 |
| 20260508153004 | 4 | 4 | 1.6 | 4.8 | 0.03 | 0.33 | 0.33 | 83 | 1012.8 |
| 20260508152504 | 4 | 266 | 1.6 | 4.8 | 0.03 | 0.33 | 0.33 | 83 | 1012.8 |
| 20260508152010 | 4 | 360 | 1.6 | 4.8 | 0.03 | 0.33 | 0.33 | 86 | 1012.8 |
| 20260508151525 | 3 | 314 | 1.6 | 4.8 | 0.03 | 0.33 | 0.33 | 86 | 1012.8 |
| 20260508151007 | 3 | 330 | 1.6 | 6.4 | 0.03 | 0.33 | 0.33 | 87 | 1012.8 |
| 20260508150504 | 3 | 307 | 1.6 | 6.4 | 0.03 | 0.33 | 0.33 | 87 | 1012.9 |
| 20260508150024 | 3 | 213 | 1.6 | 3.2 | 0.03 | 0.33 | 0.33 | 86 | 1012.8 |
| 20260508145504 | 3 | 101 | 0.0 | 4.8 | 0.05 | 0.33 | 0.33 | 87 | 1012.7 |
| 20260508145003 | 3 | 103 | 1.6 | 6.4 | 0.05 | 0.33 | 0.33 | 90 | 1012.8 |
| 20260508144541 | 3 | 68 | 3.2 | 6.4 | 0.05 | 0.33 | 0.33 | 90 | 1012.7 |
| 20260508144008 | 2 | 109 | 1.6 | 6.4 | 0.05 | 0.30 | 0.30 | 88 | 1012.4 |
| 20260508143503 | 2 | 313 | 1.6 | 4.8 | 0.05 | 0.30 | 0.30 | 87 | 1012.7 |
| 20260508143013 | 2 | 246 | 1.6 | 6.4 | 0.08 | 0.30 | 0.30 | 88 | 1013.0 |
| 20260508142509 | 2 | 245 | 0.0 | 6.4 | 0.10 | 0.30 | 0.30 | 88 | 1013.0 |
| 20260508142003 | 2 | 248 | 3.2 | 6.4 | 0.13 | 0.30 | 0.30 | 88 | 1013.0 |
| 20260508141513 | 2 | 257 | 1.6 | 6.4 | 0.15 | 0.30 | 0.30 | 88 | 1012.8 |
| 20260508141006 | 2 | 240 | 1.6 | 8.0 | 0.18 | 0.30 | 0.30 | 88 | 1012.6 |
| 20260508140507 | 2 | 274 | 4.8 | 8.0 | 0.20 | 0.30 | 0.30 | 87 | 1012.6 |
| 20260508140010 | 2 | 260 | 1.6 | 6.4 | 0.25 | 0.30 | 0.30 | 87 | 1012.4 |